| time (UTC) | temp F | wind direction | speed MPH | gust MPH | rain 1hr in | rain 24hr in | rain mn in | humidity % | barometer mb |
| 20260509020100 | 68 | 0 | 0.0 | 1.0 | 0.00 | 0.00 | 0.00 | 35 | 1011.8 |
| 20260509014558 | 70 | 0 | 0.0 | 1.0 | 0.00 | 0.00 | 0.00 | 33 | 1011.8 |
| 20260509013103 | 71 | 0 | 0.0 | 2.0 | 0.00 | 0.00 | 0.00 | 31 | 1011.8 |
| 20260509011556 | 72 | 0 | 0.0 | 3.0 | 0.00 | 0.00 | 0.00 | 28 | 1011.6 |
| 20260509010057 | 73 | 0 | 0.0 | 5.0 | 0.00 | 0.00 | 0.00 | 27 | 1011.5 |
| 20260509004600 | 74 | 329 | 1.0 | 8.0 | 0.00 | 0.00 | 0.00 | 27 | 1011.3 |
| 20260509003106 | 74 | 328 | 2.0 | 11.0 | 0.00 | 0.00 | 0.00 | 27 | 1011.4 |
| 20260509001557 | 75 | 64 | 2.0 | 11.0 | 0.00 | 0.00 | 0.00 | 26 | 1011.2 |
| 20260509000110 | 75 | 345 | 2.0 | 9.0 | 0.00 | 0.00 | 0.00 | 26 | 1011.3 |
| 20260508234559 | 75 | 1 | 2.0 | 10.0 | 0.00 | 0.00 | 0.00 | 26 | 1011.4 |
| 20260508233103 | 75 | 31 | 4.0 | 12.0 | 0.00 | 0.00 | 0.00 | 25 | 1011.4 |
| 20260508231559 | 75 | 38 | 4.0 | 13.0 | 0.00 | 0.00 | 0.00 | 26 | 1011.3 |
| 20260508230107 | 75 | 348 | 2.0 | 10.0 | 0.00 | 0.00 | 0.00 | 26 | 1011.3 |
| 20260508224557 | 75 | 19 | 4.0 | 14.0 | 0.00 | 0.00 | 0.00 | 25 | 1011.3 |
| 20260508223058 | 74 | 39 | 4.0 | 14.0 | 0.00 | 0.00 | 0.00 | 27 | 1011.4 |
| 20260508221604 | 75 | 33 | 6.0 | 13.0 | 0.00 | 0.00 | 0.00 | 26 | 1011.4 |
| 20260508220059 | 76 | 29 | 4.0 | 13.0 | 0.00 | 0.00 | 0.00 | 26 | 1011.5 |
| 20260508214611 | 76 | 1 | 4.0 | 11.0 | 0.00 | 0.00 | 0.00 | 26 | 1011.5 |
| 20260508213058 | 77 | 312 | 7.0 | 17.0 | 0.00 | 0.00 | 0.00 | 26 | 1011.6 |
| 20260508211600 | 77 | 324 | 2.0 | 10.0 | 0.00 | 0.00 | 0.00 | 27 | 1011.7 |
| 20260508210057 | 76 | 86 | 3.0 | 11.0 | 0.00 | 0.00 | 0.00 | 28 | 1011.7 |
| 20260508204604 | 76 | 333 | 5.0 | 12.0 | 0.00 | 0.00 | 0.00 | 27 | 1011.8 |
| 20260508203055 | 75 | 314 | 6.0 | 17.0 | 0.00 | 0.00 | 0.00 | 27 | 1011.8 |
| 20260508201607 | 75 | 352 | 5.0 | 16.0 | 0.00 | 0.00 | 0.00 | 28 | 1011.8 |
| 20260508200058 | 76 | 338 | 3.0 | 16.0 | 0.00 | 0.00 | 0.00 | 27 | 1011.9 |
| 20260508194621 | 75 | 54 | 5.0 | 15.0 | 0.00 | 0.00 | 0.00 | 31 | 1011.9 |
| 20260508193107 | 75 | 332 | 4.0 | 16.0 | 0.00 | 0.00 | 0.00 | 29 | 1012.1 |
| 20260508191602 | 75 | 352 | 6.0 | 15.0 | 0.00 | 0.00 | 0.00 | 32 | 1012.1 |
| 20260508190100 | 74 | 337 | 6.0 | 16.0 | 0.00 | 0.00 | 0.00 | 30 | 1012.2 |
| 20260508184556 | 73 | 36 | 8.0 | 23.0 | 0.00 | 0.00 | 0.00 | 31 | 1012.2 |
| 20260508183056 | 73 | 324 | 7.0 | 20.0 | 0.00 | 0.00 | 0.00 | 31 | 1012.1 |
| 20260508181636 | 72 | 337 | 6.0 | 19.0 | 0.00 | 0.00 | 0.00 | 32 | 1012.3 |
| 20260508174603 | 73 | 16 | 7.0 | 16.0 | 0.00 | 0.00 | 0.00 | 33 | 1012.5 |
| 20260508173057 | 73 | 343 | 6.0 | 14.0 | 0.00 | 0.00 | 0.00 | 35 | 1012.4 |
| 20260508171556 | 71 | 344 | 7.0 | 18.0 | 0.00 | 0.00 | 0.00 | 38 | 1012.5 |
| 20260508170057 | 71 | 352 | 6.0 | 18.0 | 0.00 | 0.00 | 0.00 | 39 | 1012.6 |
| 20260508164554 | 71 | 321 | 5.0 | 17.0 | 0.00 | 0.00 | 0.00 | 39 | 1012.7 |
| 20260508163105 | 70 | 340 | 7.0 | 15.0 | 0.00 | 0.00 | 0.00 | 39 | 1012.8 |
| 20260508161605 | 70 | 41 | 5.0 | 13.0 | 0.00 | 0.00 | 0.00 | 41 | 1012.6 |
| 20260508160057 | 68 | 337 | 5.0 | 16.0 | 0.00 | 0.00 | 0.00 | 46 | 1012.5 |
| 20260508154559 | 67 | 74 | 5.0 | 16.0 | 0.00 | 0.00 | 0.00 | 46 | 1012.6 |
| 20260508153056 | 67 | 332 | 3.0 | 20.0 | 0.00 | 0.00 | 0.00 | 50 | 1012.7 |
| 20260508151605 | 66 | 10 | 7.0 | 20.0 | 0.00 | 0.00 | 0.00 | 49 | 1012.4 |
| 20260508150057 | 65 | 345 | 7.0 | 17.0 | 0.00 | 0.00 | 0.00 | 49 | 1012.4 |
| 20260508144553 | 64 | 35 | 5.0 | 16.0 | 0.00 | 0.00 | 0.00 | 53 | 1012.3 |
| 20260508143055 | 64 | 307 | 6.0 | 15.0 | 0.00 | 0.00 | 0.00 | 54 | 1012.4 |
| 20260508141555 | 62 | 345 | 3.0 | 12.0 | 0.00 | 0.00 | 0.00 | 57 | 1012.1 |
| 20260508140054 | 60 | 349 | 5.0 | 11.0 | 0.00 | 0.00 | 0.00 | 59 | 1012.0 |
| 20260508134559 | 58 | 331 | 2.0 | 6.0 | 0.00 | 0.00 | 0.00 | 60 | 1012.0 |
| 20260508133105 | 56 | 270 | 1.0 | 9.0 | 0.00 | 0.00 | 0.00 | 63 | 1011.9 |
| 20260508131558 | 54 | 275 | 2.0 | 6.0 | 0.00 | 0.00 | 0.00 | 65 | 1011.7 |
| 20260508130059 | 53 | 328 | 2.0 | 5.0 | 0.00 | 0.00 | 0.00 | 66 | 1011.5 |
| 20260508124554 | 52 | 337 | 2.0 | 5.0 | 0.00 | 0.00 | 0.00 | 68 | 1011.2 |
| 20260508123106 | 52 | 1 | 0.0 | 2.0 | 0.00 | 0.00 | 0.00 | 69 | 1010.8 |
| 20260508121605 | 52 | 0 | 0.0 | 1.0 | 0.00 | 0.00 | 0.00 | 68 | 1010.6 |
| 20260508120057 | 53 | 0 | 0.0 | 1.0 | 0.00 | 0.00 | 0.00 | 66 | 1010.4 |
| 20260508114558 | 53 | 0 | 0.0 | 2.0 | 0.00 | 0.00 | 0.00 | 64 | 1010.7 |
| 20260508113056 | 53 | 0 | 0.0 | 2.0 | 0.00 | 0.00 | 0.00 | 62 | 1010.4 |
| 20260508111606 | 53 | 276 | 1.0 | 2.0 | 0.00 | 0.00 | 0.00 | 62 | 1010.7 |
| 20260508104557 | 52 | 0 | 0.0 | 4.0 | 0.00 | 0.00 | 0.00 | 61 | 1010.3 |
| 20260508103058 | 51 | 20 | 1.0 | 3.0 | 0.00 | 0.00 | 0.00 | 61 | 1010.7 |
| 20260508101557 | 51 | 270 | 1.0 | 3.0 | 0.00 | 0.00 | 0.00 | 60 | 1010.8 |
| 20260508100057 | 50 | 265 | 1.0 | 3.0 | 0.00 | 0.00 | 0.00 | 64 | 1010.7 |
| 20260508094607 | 50 | 264 | 0.0 | 2.0 | 0.00 | 0.00 | 0.00 | 65 | 1010.3 |
| 20260508093058 | 50 | 0 | 0.0 | 2.0 | 0.00 | 0.00 | 0.00 | 63 | 1010.5 |
| 20260508091604 | 50 | 0 | 1.0 | 3.0 | 0.00 | 0.00 | 0.00 | 62 | 1010.6 |
| 20260508084602 | 50 | 334 | 2.0 | 13.0 | 0.00 | 0.00 | 0.00 | 62 | 1010.9 |
| 20260508083102 | 51 | 0 | 1.0 | 3.0 | 0.00 | 0.00 | 0.00 | 57 | 1010.0 |
| 20260508081629 | 52 | 211 | 0.0 | 1.0 | 0.00 | 0.00 | 0.00 | 56 | 1010.1 |
| 20260508080058 | 52 | 0 | 0.0 | 2.0 | 0.00 | 0.00 | 0.00 | 54 | 1010.1 |
| 20260508074556 | 53 | 204 | 1.0 | 5.0 | 0.00 | 0.00 | 0.00 | 53 | 1010.1 |
| 20260508073055 | 53 | 206 | 1.0 | 5.0 | 0.00 | 0.00 | 0.00 | 52 | 1010.5 |
| 20260508071558 | 54 | 235 | 2.0 | 7.0 | 0.00 | 0.00 | 0.00 | 50 | 1010.6 |
| 20260508070107 | 55 | 195 | 3.0 | 7.0 | 0.00 | 0.00 | 0.00 | 48 | 1010.6 |
| 20260508064557 | 56 | 184 | 2.0 | 8.0 | 0.00 | 0.00 | 0.00 | 46 | 1010.7 |
| 20260508063058 | 57 | 185 | 4.0 | 8.0 | 0.00 | 0.00 | 0.00 | 45 | 1010.7 |
| 20260508061604 | 58 | 173 | 3.0 | 9.0 | 0.00 | 0.00 | 0.00 | 43 | 1010.7 |
| 20260508060106 | 59 | 177 | 5.0 | 11.0 | 0.00 | 0.00 | 0.00 | 41 | 1010.7 |
| 20260508054559 | 59 | 209 | 6.0 | 13.0 | 0.00 | 0.00 | 0.00 | 40 | 1010.8 |
| 20260508053059 | 60 | 201 | 7.0 | 13.0 | 0.00 | 0.00 | 0.00 | 39 | 1011.0 |
| 20260508051559 | 60 | 189 | 8.0 | 15.0 | 0.00 | 0.00 | 0.00 | 39 | 1010.9 |
| 20260508050057 | 60 | 233 | 7.0 | 16.0 | 0.00 | 0.00 | 0.00 | 40 | 1011.0 |
| 20260508044606 | 61 | 210 | 6.0 | 18.0 | 0.00 | 0.00 | 0.00 | 39 | 1011.2 |
| 20260508043110 | 62 | 205 | 8.0 | 17.0 | 0.00 | 0.00 | 0.00 | 36 | 1011.3 |
| 20260508041559 | 62 | 226 | 7.0 | 14.0 | 0.00 | 0.00 | 0.00 | 35 | 1011.3 |
| 20260508040101 | 62 | 205 | 4.0 | 10.0 | 0.00 | 0.00 | 0.00 | 32 | 1011.5 |
| 20260508034602 | 62 | 191 | 3.0 | 6.0 | 0.00 | 0.00 | 0.00 | 32 | 1011.6 |
| 20260508033058 | 62 | 170 | 1.0 | 4.0 | 0.00 | 0.00 | 0.00 | 34 | 1011.6 |
| 20260508031556 | 63 | 0 | 0.0 | 2.0 | 0.00 | 0.00 | 0.00 | 34 | 1011.4 |
| 20260508024608 | 65 | 0 | 0.0 | 1.0 | 0.00 | 0.00 | 0.00 | 31 | 1010.9 |
| 20260508023056 | 66 | 0 | 0.0 | 1.0 | 0.00 | 0.00 | 0.00 | 30 | 1011.0 |
| 20260508021602 | 68 | 0 | 0.0 | 0.0 | 0.00 | 0.00 | 0.00 | 28 | 1010.9 |